Regional Weather Roundup
Issued by NWS Upton, NY

Current Version | Previous Version | Text Only | Print | Product List | Glossary On
Versions: 1 2 3 4 5 6 7 8 9 10 11 12 13 14 15 16 17 18 19 20 21 22 23 24 25 26 27
000
ASUS41 KOKX 170908
RWROKX

REGIONAL WEATHER ROUNDUP
NATIONAL WEATHER SERVICE NEW YORK NY
500 AM EDT THU AUG 17 2017

NOTE: "FAIR" INDICATES FEW OR NO CLOUDS BELOW 12,000 FEET WITH NO
SIGNIFICANT WEATHER AND/OR OBSTRUCTIONS TO VISIBILITY.

NYZ071-072-176-178-NJZ106-104-171000-
NEW YORK CITY METRO AREA

CITY           SKY/WX    TMP DP  RH WIND       PRES   REMARKS
Central Park   PTCLDY    71  54  54 NE3       30.06R
Bronx Bot Gard   N/A     68  54  60 CALM      30.04R
LaGuardia APRT PTCLDY    71  59  65 NE6       30.02S
Kennedy INTL   MOCLDY    71  59  65 N8        30.03S
Breezy Point     N/A     72 N/A N/A NE7         N/A
Newark/Liberty MOCLDY    69  60  73 N9        30.02S
Teterboro      PTCLDY    70  61  73 CALM      30.02R
$$

NYZ177-179-078>081-171000-
LONG ISLAND NEW YORK

CITY           SKY/WX    TMP DP  RH WIND       PRES   REMARKS
Jones Beach      N/A     70 N/A N/A NE7         N/A
Matinecock PT    N/A     70 N/A N/A NE9         N/A
Farmingdale    PTCLDY    67  58  72 N7        30.02S
MacArthur/ISP  MOCLDY    68  60  75 N7        30.02S
Shirley        PTCLDY    69  61  75 N5        30.03R
Mt Sinai Harb    N/A    N/A N/A N/A N12         N/A
Westhampton    CLOUDY    67  60  78 NE7       30.04R
East Hampton   MOCLDY    64  57  78 CALM      30.03R
Montauk          N/A     67  59  75 NE5       30.04R
$$

NYZ052-065-067-171000-
HUDSON VALLEY

CITY           SKY/WX    TMP DP  RH WIND       PRES   REMARKS
White Plains   PTCLDY    65  54  67 CALM      30.03S
Larchmont Harb   N/A     68 N/A N/A NW3         N/A
Croton On Huds   N/A     64 N/A N/A N1          N/A
Newburgh       CLEAR     63  61  94 CALM      30.06S
Montgomery     MOCLDY    59  58  96 CALM      30.05S
Poughkeepsie   CLEAR     57  55  93 CALM      30.05R
Albany         PTCLDY    54  51  90 CALM      30.07S
$$

NJZ001-105-106-008-010-013-015-019>022-104-171000-
NEW JERSEY

CITY           SKY/WX    TMP DP  RH WIND       PRES   REMARKS
Newark/Liberty MOCLDY    69  60  73 N9        30.02S
Teterboro      PTCLDY    70  61  73 CALM      30.02R
Caldwell       MOCLDY    65  64  97 CALM      30.04S
Somerville     MOCLDY    63  63 100 CALM      30.01S FOG
Linden         CLOUDY    72  58  60 NE3       30.02S
Perth Amboy      N/A     72 N/A N/A NE5         N/A
Sussex         MOCLDY    60  60 100 CALM      30.05S
Andover          N/A     62  61  96 CALM      30.05S
Trenton        CLEAR     67  63  87 N5        30.02S
Millville      CLEAR     69  68  96 CALM      30.01S FOG
Atlantic City  FOG       69  69 100 CALM      30.01S VSB 1/4
Wrightstown    CLEAR     66  65  98 CALM      29.99F
Toms River     CLEAR     66  64  93 CALM      30.03R
Belmar         CLEAR     68  64  87 NE5       30.03S
$$

PAZ047>061-062-071-171000-
EASTERN PENNSYLVANIA

CITY           SKY/WX    TMP DP  RH WIND       PRES   REMARKS
Philadelphia   CLEAR     71  69  93 CALM      30.02S
Allentown      MOCLDY    65  61  87 CALM      30.04S
Scranton       CLEAR     60  58  92 E5        30.07S
$$

CTZ002-004>006-009-010-012-RIZ004-006-007-MAZ004-011-015-171000-
SOUTHERN NEW ENGLAND
 IN CT

CITY           SKY/WX    TMP DP  RH WIND       PRES   REMARKS
Bradley INTL   PTCLDY    58  55  90 CALM      30.05R
Hartford       CLEAR     62  58  86 N7        30.05R
Danbury        CLEAR     59  57  93 CALM      30.06S
Wtrbury/Oxford CLEAR     59  54  83 N6        30.06S
Norwalk Harbor   N/A     66 N/A N/A N7          N/A
Bridgeport     CLEAR     67  57  70 N6        30.03S
Meriden        CLEAR     59  57  93 CALM      30.04R
New Haven      PTCLDY    64  56  75 NE5       30.04R
Chester        NOT AVBL
Groton         MOCLDY    64  57  78 N7        30.03R
Wilimantic     CLEAR     58  57  97 N3        30.05R

 IN RI

CITY           SKY/WX    TMP DP  RH WIND       PRES   REMARKS
Providence     PTCLDY    62  53  72 N5        30.04S
Block Island   CLOUDY    66  56  70 NE6       30.04R
Westerly       MOCLDY    64  54  69 N3        30.04R
 IN MA

CITY           SKY/WX    TMP DP  RH WIND       PRES   REMARKS
Boston         PTCLDY    64  47  53 NW7       30.04S
Worcester      CLEAR     56  46  69 CALM      30.06S
Westfield      CLEAR     55  55 100 CALM      30.05S
Provincetown   MOCLDY    65  56  72 N9        30.03R
Nantucket      CLOUDY    65  60  84 N8        30.01R
$$

ANZ330-335-338-340-345-350-353-355-171000-
COASTAL MARINE OBSERVATIONS


STATION/POSITION TIME  SKY/WX   TEMP    WIND        PRES    VSBY  WAVE
                                AIR SEA DIR/SP/G                  HT/PER
                 (UTC)          (F)     (DEG/KT/KT) (MB)    (MI)  (FT/S)
NY HARB ENTRANCE 0750            74 75   20/ 16/ 19 1015.4          3/10
GREAT SOUTH BAY  0830            72 77   10/ 10/ 10   N/A
23 SSW MONTAUK P 0750            72 71              1016.4          3/ 9
15 E BARNEGAT LI 0830               76                N/A           3/ 9
HUDSON CANYON    0750            74 74  280/  4/  6 1015.3          2/10
KINGS POINT      0830            71 74   60/  5/  8 1016.4
EXECUTION ROCKS  NOT AVBL
WESTERN LI SOUND NOT AVBL
CENTRAL LI SOUND NOT AVBL
EASTERN LI SOUND NOT AVBL
ROBBINS REEF     0830                    10/  7/ 11 1017.1
$$


>>>>>>>>>>>>>>>>>>>>>>>>>>>> KEY <<<<<<<<<<<<<<<<<<<<<<<<<<<
>                                                          <
>     SKY/WX - Sky Condition/Present Weather               <
>     TMP    - Temperature in Fahrenheit                   <
>     DP     - Dew Point in Fahrenheit                     <
>     RH     - Relative Humidity in Percent                <
>     WIND   - Direction (from) and Speed in MPH           <
>     PRES   - Mean Sea Level Pressure (inches of Hg)      <
>     WCI    - Wind Chill Index                            <
>     VSB    - VISIBILITY IN MILES                         <
>     HX     - HEAT INDEX                                  <
>     TC     - TEMPERATURE IN CELSIUS                      <
>     VRB    - VARIABLE WIND DIRECTION                     <
>                                                          <
>>>>>>>>>>>>>>>>>>>>>>>>>>>> KEY <<<<<<<<<<<<<<<<<<<<<<<<<<<




USA.gov is the U.S. government's official web portal to all federal, state and local government web resources and services.